Location: *
(35.1500°N, 76.6700°W)
Time: 14:27:48
(UTC+00:00)

ASTRO E2 - Pass Details

Date: 13 October 2019
Orbit: 511 x 517 km, 31.4° (Epoch: 16 November)

Event Time Altitude Azimuth Distance (km) Brightness Sun altitude
Rises 23:06:11 0° 267° (W) 2,620 9.0 -7.3°
Reaches altitude 10° 23:08:30 10° 260° (W) 1,733 7.1 -7.7°
Maximum altitude 23:12:15 40° 190° (S) 761 3.7 -8.5°
Drops below altitude 10° 23:16:00 10° 120° (ESE) 1,728 4.9 -9.3°
Enters shadow 23:16:18 - 118° (ESE) 1,836 5.0 -9.3°
